Wetbulb
41.53 37.92 34.16 37.58 39.84 39.31 38.31 36.32 35.58 39.43 42.51 40.92 39.62 39.06 40.66 42.83 45.53 45.15 46.45 47.99 50.91 55.23 57.76 58.02 58.44 58.73 58.86 59.47 59.19 59.92 61.15 62.46 64.23 62.54 61.89 60.24 60.47 60.93 60.75 60.82 61.06 61.55 62.11 62.40
39.86 33.47 38.71 42.02 41.70 39.48 38.06 36.18 36.21 40.83 42.54 40.24 38.43 37.73 40.87 43.09 44.54 45.28 46.72 47.53 53.37 55.07 56.11 57.22 58.02 58.77 59.17 58.57 59.67 60.08 61.12 63.27 63.74 63.98 63.55 62.42 62.23 62.74 62.95 62.69 62.86 63.01 63.20 63.51
33.25 36.51 42.69 40.42 37.73 36.16 35.83 35.07 35.98 36.33 40.13 40.08 37.93 35.24 37.75 42.27 46.15 47.98 48.23 51.82 54.05 54.31 55.23 56.92 57.73 58.53 59.37 60.05 60.46 61.39 60.59 63.22 63.38 64.29 63.44 62.99 64.37 64.39 63.66 64.13 63.63 64.26 64.13 64.21
35.55 40.82 39.28 36.90 35.82 37.79 31.80 39.48 38.24 36.74 33.72 28.75 38.50 28.12 37.77 41.34 43.86 46.54 47.47 51.54 53.08 54.18 56.21 57.19 57.94 58.85 59.51 59.88 61.16 60.57 62.43 62.72 63.51 63.57 63.06 62.26 61.74 61.07 62.76 63.67 64.75 64.85 65.27 64.95
31.45 35.61 34.94 34.02 36.41 38.12 34.45 39.12 36.73 36.32 33.23 30.98 32.75 31.12 35.12 42.93 41.89 44.60 46.40 50.67 52.59 55.13 56.46 56.56 57.90 58.92 59.35 58.98 58.96 60.08 61.08 62.65 62.31 62.03 62.78 61.96 60.94 61.66 63.13 63.89 63.37 63.75 64.11 64.81
35.21 39.71 37.32 36.69 38.74 38.76 39.72 36.60 35.55 34.43 33.10 21.94 30.93 31.85 32.42 35.24 40.90 44.37 45.55 48.43 52.48 54.83 55.48 55.80 57.68 58.19 58.67 58.80 58.74 59.18 59.17 60.60 61.53 61.85 60.94 60.92 60.80 62.45 61.88 61.37 60.73 60.95 61.60 62.97
31.50 33.75 37.07 39.16 33.86 38.08 37.07 31.29 18.35 19.97 16.97 20.03 31.37 30.12 31.16 37.38 43.77 44.21 44.29 45.34 50.94 53.10 55.19 55.06 56.69 56.89 56.16 56.96 57.89 58.86 58.28 59.01 60.87 61.33 60.80 60.37 60.24 60.80 60.65 61.25 61.48 60.23 59.47 59.75
20.46 19.83 33.26 37.96 34.33 32.12 32.46 32.61 27.03 21.49 23.56 24.26 32.15 24.82 30.81 38.20 41.82 45.65 47.26 46.47 48.67 50.21 52.77 54.05 55.35 57.25 57.21 56.34 57.31 58.73 57.99 58.63 60.00 60.62 60.62 60.77 60.50 60.02 60.09 59.60 59.81 59.49 59.73 59.98
23.75 24.39 36.27 37.40 38.13 37.13 31.27 27.23 35.42 30.45 31.33 26.76 26.56 30.24 33.80 38.72 38.39 41.29 43.76 45.17 45.62 46.98 46.97 50.08 53.15 55.30 57.14 57.65 57.32 59.26 58.64 58.14 59.25 59.63 60.53 60.29 60.43 60.21 59.82 59.91 59.83 59.70 59.28 58.98
31.37 22.13 33.68 36.18 37.18 36.41 34.97 36.11 25.71 25.89 19.09 22.10 25.98 25.48 29.12 33.20 34.88 38.43 40.29 41.99 43.84 46.92 46.59 46.98 47.51 48.96 53.05 55.68 57.61 59.66 59.74 58.96 58.74 59.64 59.85 60.17 60.69 61.15 61.01 60.65 59.67 59.35 59.54 59.55
32.42 28.48 27.13 32.31 30.33 28.97 30.48 28.02 29.56 24.97 27.09 24.73 21.80 27.37 36.75 33.85 35.73 36.20 38.05 40.87 42.45 44.50 45.72 45.91 45.92 47.08 47.12 48.87 53.89 57.50 59.17 59.10 59.32 60.13 60.33 60.17 60.29 60.72 60.91 60.40 60.09 59.71 59.89 59.89
32.64 28.67 18.04 28.32 33.76 35.32 33.07 29.24 27.05 19.30 19.87 28.84 24.37 28.52 38.65 38.02 36.63 38.03 38.17 40.45 41.23 41.71 44.14 46.38 46.24 47.04 47.14 46.95 49.43 52.48 55.80 58.34 59.47 60.05 60.25 59.99 60.47 60.71 60.67 60.97 61.17 60.92 59.40 60.23
32.46 23.18 9.08 19.33 24.15 29.07 28.01 29.77 30.80 27.81 26.67 18.97 24.48 28.61 39.32 36.33 38.76 38.93 38.07 39.68 41.57 41.97 41.80 44.45 46.17 45.90 46.76 48.19 48.66 49.80 51.94 54.75 57.60 58.98 59.57 59.10 58.89 59.32 59.45 59.91 59.91 59.09 57.82 56.89
35.85 24.34 17.46 12.82 18.19 24.85 22.64 26.79 29.35 24.76 13.95 23.60 23.91 25.64 33.06 34.42 36.50 38.21 39.12 40.13 40.23 41.11 41.78 41.82 42.51 44.93 46.45 47.58 48.82 49.75 50.85 53.14 54.33 56.43 56.94 56.33 56.13 57.16 56.85 56.64 55.78 54.97 54.29 54.24
29.73 15.06 23.13 25.24 28.03 28.21 26.50 26.32 27.67 17.72 24.27 17.97 24.99 29.47 32.91 35.18 35.58 38.45 37.89 40.74 40.81 40.89 41.22 41.31 40.92 41.09 42.56 45.08 47.15 47.94 48.63 49.70 52.29 53.06 53.33 53.35 53.76 53.63 53.39 53.20 52.50 50.91 50.31 49.92
29.31 17.56 17.81 16.40 27.66 27.76 25.20 28.25 28.16 28.62 29.29 28.45 29.31 31.87 36.51 38.65 37.31 36.71 37.90 39.19 39.11 39.99 40.87 41.37 41.79 41.28 41.71 41.43 43.88 46.88 47.24 47.77 49.03 49.60 50.16 50.44 51.54 52.24 50.67 49.51 48.43 47.96 46.91 46.18
24.82 18.69 16.77 16.63 25.94 21.42 16.01 28.22 29.40 31.31 32.05 31.18 24.23 31.14 35.39 36.03 38.34 37.25 37.59 38.11 38.63 39.44 40.14 40.73 40.40 40.73 41.17 41.69 42.71 43.23 45.99 47.15 47.25 47.12 47.52 48.08 48.66 48.89 48.89 47.54 46.30 45.07 44.29 44.12
24.10 20.36 21.61 15.43 17.64 8.70 26.49 35.06 34.80 32.24 33.00 33.20 33.47 34.01 37.29 39.00 39.78 38.57 38.76 38.09 38.50 39.95 40.10 40.49 40.37 40.80 41.19 41.88 42.45 42.77 43.62 46.07 46.73 46.16 46.17 46.59 46.80 46.79 46.51 45.91 44.85 43.80 43.31 43.56
28.24 23.96 18.65 15.93 14.35 22.78 28.30 31.79 32.19 30.16 29.05 34.17 32.91 34.90 35.82 37.32 39.40 35.91 39.35 39.66 39.05 38.95 40.51 40.74 40.63 41.01 41.21 41.19 41.72 42.07 42.44 42.49 43.82 45.83 45.97 45.76 45.77 44.97 44.48 43.91 43.17 42.06 39.93 39.69
29.06 27.14 19.87 18.27 16.15 16.50 27.22 33.57 36.37 34.66 24.29 35.39 34.81 34.63 34.46 35.57 31.93 35.95 38.17 40.03 40.49 40.47 40.05 40.24 40.66 40.84 40.39 40.41 41.22 41.35 41.71 42.29 42.76 43.80 43.86 46.40 45.51 44.54 43.50 42.63 41.97 41.38 40.82 39.26
16.85 17.56 16.95 17.47 15.93 22.92 32.28 35.29 36.34 21.42 24.07 36.00 36.52 35.86 34.60 32.08 35.58 37.38 39.54 39.36 40.17 40.57 39.99 40.27 39.83 39.58 39.90 40.07 40.13 39.77 40.45 40.19 41.82 42.90 43.75 44.06 45.47 44.13 43.36 41.27 40.35 39.32 39.57 39.16
22.37 17.89 17.14 19.14 16.32 14.85 34.55 33.87 28.20 31.28 35.57 37.09 36.93 35.90 35.51 35.95 35.31 35.11 36.05 37.15 39.30 40.25 39.29 39.41 38.49 38.93 39.87 39.62 39.16 38.26 37.92 39.89 40.96 41.71 42.13 42.31 42.77 44.09 42.62 40.73 38.77 38.03 38.14 37.78
21.54 25.78 24.04 24.01 23.62 30.96 34.94 33.58 35.98 36.22 35.23 35.97 36.08 36.12 36.24 34.38 33.21 34.16 34.75 34.95 38.19 39.53 40.45 39.29 38.30 38.06 38.03 38.53 38.34 36.99 37.59 39.20 39.93 40.38 40.55 40.95 41.92 41.92 40.67 39.13 37.54 36.57 36.73 36.61
26.20 29.70 26.23 27.05 27.63 31.92 34.93 36.08 37.04 37.59 35.34 34.87 34.61 34.37 33.94 32.07 33.21 32.99 33.80 34.15 34.72 38.97 39.61 39.84 39.85 37.12 36.62 36.89 37.61 36.66 37.60 38.74 39.21 39.54 40.24 40.40 41.58 43.42 42.56 41.13 39.11 36.75 36.21 36.15
27.09 28.91 26.75 26.20 29.18 31.11 33.48 35.22 36.14 34.77 34.81 34.58 34.88 34.29 33.57 32.67 32.77 33.33 33.73 34.13 34.71 37.81 39.16 39.83 39.74 36.91 36.56 36.97 36.57 36.19 36.77 37.45 38.39 39.16 39.95 42.26 43.01 43.00 41.96 41.27 40.51 39.79 39.33 39.23
27.91 27.85 26.04 25.22 30.19 30.39 30.94 33.59 35.66 33.68 33.73 34.20 33.44 32.77 33.19 33.83 33.87 35.51 35.39 34.80 34.34 36.79 37.70 37.71 39.35 38.98 39.11 37.87 36.64 36.09 36.58 36.61 37.27 37.73 38.03 40.08 40.04 39.55 40.42 39.62 39.06 40.71 40.76 42.24
MSLP
1012.31 1012.65 1012.40 1011.72 1011.40 1011.20 1010.96 1009.98 1009.35 1008.12 1007.30 1007.20 1006.81 1005.92 1004.65 1003.92 1003.36 1003.42 1003.88 1004.11 1004.28 1004.19 1004.92 1004.27 1006.72 1007.45 1007.82 1007.99 1007.73 1007.89 1008.27 1008.14 1009.10 1010.04 1010.44 1011.07 1011.51 1011.57 1012.54 1012.99 1013.45 1013.66 1014.10 1014.69
1012.29 1011.73 1010.91 1010.62 1010.38 1010.25 1009.96 1009.56 1008.99 1008.25 1007.68 1007.35 1006.42 1005.04 1003.82 1003.41 1003.17 1003.03 1002.61 1002.94 1002.90 1004.08 1004.28 1005.27 1006.73 1007.65 1007.92 1007.73 1007.70 1007.99 1008.05 1008.25 1008.54 1009.91 1009.97 1010.72 1010.93 1011.56 1012.41 1012.89 1013.35 1013.70 1014.09 1014.54
1011.50 1010.80 1010.20 1010.11 1010.01 1009.74 1009.32 1009.09 1008.72 1008.14 1007.08 1006.93 1006.68 1005.00 1003.67 1003.01 1002.66 1002.46 1002.19 1002.03 1002.53 1003.64 1004.01 1005.63 1006.37 1006.86 1007.50 1007.64 1007.67 1007.58 1007.93 1008.39 1008.38 1009.43 1010.07 1010.66 1010.98 1011.74 1012.49 1013.09 1013.54 1013.65 1013.86 1014.32
1011.16 1010.63 1010.45 1010.44 1010.38 1010.11 1009.54 1008.89 1008.60 1008.15 1007.97 1007.57 1006.78 1006.53 1004.90 1003.80 1003.17 1002.88 1002.48 1002.40 1002.96 1003.41 1004.19 1005.05 1005.96 1006.31 1006.92 1007.37 1007.74 1007.57 1007.21 1007.73 1007.93 1009.38 1009.90 1010.31 1010.65 1011.59 1012.08 1012.52 1013.35 1013.53 1013.61 1014.08
1011.55 1010.90 1010.68 1010.57 1010.43 1010.33 1009.76 1009.20 1009.02 1008.76 1008.57 1008.03 1007.25 1007.37 1007.11 1005.02 1004.12 1004.03 1003.71 1003.38 1003.44 1003.57 1004.22 1005.48 1005.84 1005.89 1006.52 1007.12 1007.41 1007.50 1007.20 1007.77 1008.39 1008.08 1009.80 1010.62 1010.81 1011.31 1011.70 1012.39 1013.13 1013.30 1013.62 1013.79
1011.48 1010.81 1010.80 1010.72 1010.29 1010.06 1009.60 1009.48 1008.97 1008.69 1008.75 1008.68 1007.81 1007.43 1007.31 1006.39 1006.10 1005.51 1005.02 1004.75 1004.34 1004.37 1004.86 1005.58 1005.95 1006.63 1006.81 1007.51 1007.58 1008.01 1007.73 1007.46 1008.44 1008.61 1009.23 1010.54 1010.69 1011.15 1011.25 1012.71 1013.33 1013.37 1013.63 1013.97
1011.99 1011.61 1011.10 1010.89 1010.51 1010.00 1010.02 1010.03 1010.30 1010.31 1010.21 1009.40 1008.45 1008.37 1009.34 1007.77 1006.93 1006.85 1006.67 1006.12 1005.41 1005.36 1005.50 1006.29 1006.59 1006.93 1007.27 1007.66 1007.89 1008.08 1008.20 1008.00 1008.36 1008.73 1009.49 1010.38 1010.38 1010.71 1011.55 1012.30 1012.74 1013.15 1013.67 1013.98
1013.39 1012.70 1011.81 1011.37 1011.32 1011.31 1011.04 1011.36 1011.52 1011.28 1010.97 1010.36 1009.24 1009.86 1010.42 1008.59 1007.99 1007.74 1007.14 1007.39 1006.65 1006.54 1006.45 1006.70 1006.89 1006.64 1007.25 1007.70 1008.00 1008.31 1008.75 1008.66 1008.66 1008.83 1010.08 1010.46 1010.88 1011.15 1011.52 1012.05 1012.25 1012.98 1013.26 1013.65
1014.03 1013.55 1012.44 1011.87 1011.68 1011.66 1011.62 1012.03 1012.11 1012.00 1011.74 1011.64 1011.81 1011.15 1009.58 1009.44 1008.64 1008.57 1008.62 1008.32 1008.01 1007.40 1006.79 1007.03 1006.98 1007.11 1007.15 1007.61 1008.11 1008.32 1008.29 1008.40 1009.27 1009.23 1010.12 1010.67 1011.05 1011.44 1012.03 1012.11 1012.40 1012.81 1013.27 1013.75
1014.50 1014.30 1013.49 1012.80 1012.50 1012.29 1012.44 1012.64 1012.95 1013.08 1013.59 1013.29 1013.21 1012.68 1012.50 1011.43 1010.92 1009.77 1009.10 1008.77 1008.43 1007.67 1007.44 1007.22 1007.26 1007.55 1007.76 1007.59 1007.47 1007.69 1007.86 1008.33 1008.90 1009.49 1009.87 1010.37 1010.72 1010.99 1011.69 1012.04 1012.54 1012.67 1012.89 1013.70
1015.04 1015.37 1015.31 1014.45 1014.29 1014.05 1013.70 1013.90 1014.24 1014.71 1014.86 1014.42 1014.15 1014.21 1013.40 1012.69 1011.92 1011.31 1010.73 1010.10 1009.56 1008.67 1008.39 1008.31 1008.06 1007.94 1007.97 1007.57 1007.40 1007.37 1007.75 1008.06 1008.52 1009.35 1009.86 1010.35 1010.84 1011.17 1011.33 1011.57 1011.68 1012.35 1012.83 1013.25
1015.94 1016.35 1016.96 1016.38 1015.62 1014.97 1015.00 1015.30 1015.43 1015.99 1016.39 1015.79 1015.33 1015.33 1014.03 1013.31 1012.70 1012.21 1011.81 1011.14 1010.57 1010.04 1009.54 1009.19 1008.95 1008.74 1008.36 1008.09 1007.89 1007.75 1007.78 1007.94 1008.08 1008.66 1009.33 1009.95 1010.42 1010.69 1010.87 1011.23 1011.32 1011.84 1012.10 1012.46
1016.80 1017.61 1018.48 1018.02 1017.16 1016.24 1016.30 1016.42 1016.48 1016.77 1016.95 1017.19 1016.47 1016.14 1014.66 1013.84 1013.11 1012.79 1012.61 1012.30 1011.57 1010.91 1010.36 1010.01 1009.58 1009.63 1009.12 1008.65 1008.53 1008.43 1008.24 1008.13 1007.97 1008.53 1009.03 1009.61 1010.09 1010.29 1010.50 1010.59 1010.70 1011.05 1011.55 1011.96
1017.30 1018.76 1019.41 1019.66 1019.08 1018.25 1017.38 1017.16 1016.98 1017.28 1018.15 1018.03 1017.45 1016.63 1015.75 1014.97 1014.34 1013.72 1013.15 1012.83 1012.57 1012.27 1011.75 1011.17 1010.93 1010.67 1010.25 1009.82 1009.55 1009.35 1009.33 1009.04 1008.94 1008.94 1008.92 1009.52 1009.89 1010.30 1010.58 1011.04 1011.16 1011.35 1011.68 1012.05
1018.29 1019.72 1020.10 1019.85 1019.10 1018.35 1017.68 1017.25 1017.18 1017.68 1017.54 1017.55 1017.28 1016.63 1016.00 1015.50 1015.09 1014.85 1014.20 1013.62 1013.32 1013.14 1012.94 1012.65 1012.13 1011.75 1011.28 1010.88 1010.53 1010.24 1010.10 1010.11 1009.86 1010.13 1009.81 1010.03 1009.91 1010.65 1011.13 1011.57 1011.73 1011.82 1012.01 1012.31
1019.26 1020.49 1020.80 1020.67 1019.59 1018.77 1017.88 1016.98 1016.69 1016.59 1016.68 1016.67 1016.65 1016.54 1016.33 1015.53 1015.35 1015.42 1015.29 1014.75 1014.38 1014.17 1013.99 1013.77 1013.47 1013.03 1012.52 1012.05 1011.66 1011.28 1011.15 1011.09 1010.83 1010.61 1010.83 1010.87 1010.94 1010.50 1011.47 1012.06 1012.38 1012.84 1013.06 1012.96
1020.01 1021.07 1021.48 1021.19 1019.81 1019.00 1018.35 1016.59 1016.08 1015.80 1015.80 1016.08 1016.41 1016.54 1016.42 1015.91 1015.80 1016.03 1015.90 1015.69 1015.48 1015.17 1014.69 1014.36 1014.17 1013.82 1013.32 1012.85 1012.70 1012.44 1011.99 1011.41 1011.41 1011.35 1011.45 1011.37 1011.34 1011.46 1011.85 1012.22 1012.57 1013.05 1013.33 1013.46
1020.41 1021.31 1021.66 1021.52 1020.44 1019.15 1016.76 1015.84 1015.58 1015.62 1015.71 1015.80 1015.97 1016.35 1016.18 1016.04 1016.07 1016.13 1016.20 1016.01 1015.79 1015.65 1015.40 1015.12 1014.66 1014.27 1014.15 1014.03 1013.56 1012.80 1012.21 1012.17 1012.18 1012.10 1012.22 1012.01 1011.79 1012.24 1012.35 1012.63 1013.06 1013.32 1013.51 1013.77
1020.34 1021.09 1021.73 1021.54 1020.81 1018.54 1016.64 1015.76 1015.40 1015.63 1015.74 1015.55 1015.91 1016.26 1016.18 1016.08 1016.09 1016.33 1016.29 1016.12 1016.01 1015.77 1015.62 1015.49 1015.24 1014.81 1014.46 1014.22 1013.99 1013.54 1013.05 1012.81 1012.62 1012.69 1012.53 1012.35 1012.24 1012.50 1012.70 1012.99 1013.54 1014.00 1014.03 1014.17
1020.44 1020.82 1021.65 1021.11 1020.33 1018.28 1015.80 1015.10 1014.90 1015.24 1015.64 1015.59 1015.92 1016.35 1016.44 1016.26 1016.33 1015.90 1016.04 1016.13 1016.00 1015.78 1015.60 1015.45 1015.32 1015.15 1015.08 1014.84 1014.40 1013.85 1013.74 1013.84 1013.74 1013.27 1013.01 1012.68 1012.38 1012.57 1013.14 1013.50 1013.61 1014.06 1014.62 1014.64
1020.71 1020.99 1021.13 1020.70 1019.47 1017.15 1015.23 1014.98 1015.08 1015.53 1015.54 1015.33 1015.79 1016.16 1016.31 1016.32 1016.12 1016.03 1015.84 1015.73 1015.68 1015.78 1015.72 1015.51 1015.35 1015.29 1015.20 1015.01 1014.85 1014.68 1014.41 1014.24 1014.06 1013.60 1012.99 1012.45 1012.65 1012.50 1012.84 1013.45 1013.63 1014.08 1014.39 1014.84
1019.61 1020.24 1020.20 1019.56 1018.53 1016.33 1014.80 1015.28 1015.13 1014.50 1014.62 1014.92 1015.39 1015.68 1015.93 1015.81 1016.04 1016.03 1015.94 1015.82 1015.59 1015.40 1015.44 1015.58 1015.70 1015.52 1015.33 1015.11 1014.91 1014.99 1014.90 1014.42 1013.77 1013.29 1012.85 1012.54 1012.45 1013.00 1013.01 1013.46 1014.05 1014.26 1014.44 1014.74
1018.42 1017.97 1018.01 1017.71 1015.81 1014.42 1014.04 1013.76 1013.86 1014.10 1014.49 1014.80 1015.13 1015.38 1015.66 1015.84 1015.98 1015.99 1016.03 1015.86 1015.65 1015.42 1015.19 1015.28 1015.56 1015.64 1015.52 1015.21 1015.02 1014.98 1014.77 1014.30 1013.86 1013.34 1012.97 1012.76 1012.66 1012.48 1012.85 1013.60 1013.95 1014.15 1014.17 1014.47
1017.31 1016.77 1016.77 1016.34 1014.17 1013.79 1013.54 1013.58 1013.71 1013.89 1014.41 1014.77 1015.06 1015.42 1015.61 1015.77 1016.06 1016.14 1016.09 1016.01 1015.91 1015.47 1015.26 1015.11 1015.20 1015.42 1015.56 1015.61 1015.59 1015.40 1014.92 1014.35 1013.87 1013.48 1013.10 1012.88 1013.02 1012.98 1013.34 1013.66 1013.95 1014.26 1014.54 1014.60
1016.41 1016.30 1015.86 1015.28 1014.04 1013.65 1013.23 1013.17 1013.50 1013.94 1014.29 1014.85 1015.17 1015.49 1015.59 1015.90 1016.02 1016.01 1016.11 1016.09 1015.83 1015.69 1015.45 1015.37 1015.28 1015.25 1015.33 1015.37 1015.34 1015.22 1015.09 1014.73 1014.28 1013.77 1013.50 1013.40 1013.30 1013.17 1013.20 1013.29 1013.49 1013.66 1013.85 1013.99
1015.14 1014.45 1014.76 1013.72 1012.61 1012.62 1012.49 1012.42 1013.12 1013.90 1014.42 1014.76 1015.10 1015.39 1015.65 1015.82 1015.98 1015.97 1015.71 1015.63 1015.64 1015.65 1015.60 1015.38 1015.39 1015.52 1015.34 1015.14 1015.20 1015.22 1015.00 1014.87 1014.63 1014.48 1014.19 1013.92 1013.67 1013.45 1013.27 1013.22 1013.35 1013.46 1013.42 1013.53
Wind_Speed
5 2 7 8 9 16 14 13 15 16 9 5 17 19 19 14 8 4 8 7 11 13 8 13 7 6 5 3 5 6 6 9 7 9 9 9 10 8 6 6 8 9 9 10
3 8 11 10 8 10 8 11 12 7 6 5 9 17 16 7 5 5 8 6 9 11 14 12 10 9 7 6 6 6 4 7 8 10 10 10 10 8 9 7 7 8 9 9
4 6 5 6 7 9 6 5 7 15 10 9 6 9 8 1 4 5 9 2 14 15 17 14 11 10 7 8 7 6 9 13 12 12 5 5 8 7 7 8 7 9 11 9
5 4 7 8 8 9 5 3 12 14 11 4 4 6 8 15 4 6 7 6 11 12 9 9 11 9 11 9 7 4 6 14 15 15 9 10 10 11 8 9 7 8 11 8
8 4 3 4 5 7 8 7 11 8 9 4 4 4 10 8 12 13 5 4 5 14 18 13 10 9 9 9 6 5 3 14 10 12 13 11 12 9 7 8 10 8 6 8
7 4 3 2 8 8 12 9 10 3 1 3 4 4 9 15 9 13 11 8 1 7 13 8 8 7 9 8 9 4 5 9 9 8 8 21 17 10 9 7 7 6 4 4
7 3 3 3 7 6 14 6 4 5 4 4 4 11 8 17 9 10 13 15 5 5 11 8 4 6 6 9 8 8 7 8 9 10 12 5 8 10 10 11 10 9 5 3
4 9 6 6 3 4 6 3 3 4 1 3 8 6 7 13 11 6 14 15 8 4 5 5 5 9 9 7 6 9 8 5 10 7 7 3 1 3 5 4 5 4 5 5
5 5 5 5 1 3 7 4 1 3 1 4 5 9 6 18 18 13 14 14 12 12 5 4 5 2 5 10 11 10 11 9 9 12 8 6 5 4 6 5 5 4 4 3
4 3 5 5 8 9 5 4 5 5 5 5 3 5 8 13 11 12 13 11 9 10 10 10 7 3 5 5 4 7 10 14 13 12 12 9 9 7 9 7 9 6 5 7
6 4 7 7 6 5 7 6 4 4 3 4 2 4 12 12 9 8 9 8 8 10 9 7 7 6 4 1 5 5 6 11 12 11 9 10 7 11 8 7 8 9 9 7
3 3 2 1 4 4 4 6 4 4 5 3 2 4 8 13 9 8 10 10 9 7 7 7 7 6 6 6 5 2 5 5 9 10 11 13 13 12 11 13 15 10 12 10
5 4 4 9 9 8 6 7 4 2 3 2 1 2 8 10 13 11 9 9 10 11 10 9 10 9 8 7 6 7 6 4 4 7 9 8 5 6 9 10 9 7 8 7
4 3 6 6 7 3 5 6 6 5 5 3 2 3 7 9 10 12 13 11 8 9 12 12 11 10 9 9 9 8 7 6 6 4 10 8 6 6 6 3 5 5 6 7
5 4 3 2 3 2 4 3 4 3 4 4 4 1 5 7 6 7 8 11 12 12 12 10 10 9 10 9 8 8 7 6 6 5 6 4 9 7 6 5 4 4 5 6
4 0 3 5 2 4 2 5 4 3 3 2 2 4 5 6 7 9 10 10 10 10 10 10 8 8 9 8 8 6 6 5 5 5 5 5 5 9 7 6 6 5 4 5
3 3 3 3 2 4 6 4 3 1 2 4 2 3 3 3 6 6 7 7 8 8 7 9 8 7 7 8 7 6 6 6 6 5 4 4 5 6 5 5 6 5 5 5
3 3 2 3 4 5 7 2 2 3 3 4 3 3 4 5 3 5 5 4 6 6 6 7 7 6 5 5 7 7 7 6 5 4 3 2 4 4 5 5 4 4 4 5
3 3 2 4 2 5 1 4 5 4 4 7 6 5 2 3 2 2 3 4 4 5 5 4 4 5 7 7 6 6 7 7 5 3 1 1 2 2 3 4 4 2 3 2
2 3 4 2 3 5 4 4 4 4 4 7 6 6 3 3 4 2 4 3 5 5 4 5 6 4 5 6 7 6 6 6 6 6 6 5 5 5 6 6 6 3 2 3
2 3 3 2 3 7 4 6 4 2 6 6 7 6 4 2 2 3 5 6 4 3 5 4 6 5 4 5 5 6 6 6 6 6 6 5 5 5 6 5 3 4 4 4
6 5 4 1 1 7 7 5 7 5 3 7 7 6 6 5 3 2 2 4 6 6 4 4 4 5 5 5 5 5 5 6 7 7 6 6 4 4 5 7 4 5 5 5
3 7 4 9 8 5 8 4 4 5 5 5 6 4 5 4 2 3 3 5 5 6 4 3 3 3 4 5 5 6 7 7 6 6 6 6 5 1 3 5 6 4 5 3
4 4 4 3 4 7 10 5 6 5 5 5 5 5 3 2 2 3 4 6 5 5 4 3 4 4 4 4 4 4 6 7 7 6 6 4 2 3 4 3 3 3 5 5
6 6 5 6 9 5 7 8 8 7 7 7 5 4 4 2 3 3 4 5 5 5 3 3 4 3 4 5 4 4 5 6 6 6 5 5 3 3 3 3 3 4 4 6
7 8 7 9 9 5 5 7 10 10 8 7 7 5 3 3 4 5 6 6 4 5 3 4 4 3 4 3 4 6 5 5 5 5 5 4 4 4 1 2 1 2 2 7
Wind_Direction
194 179 239 243 234 249 268 315 314 314 323 157 239 262 269 273 252 230 232 225 200 141 158 114 125 130 162 150 123 156 163 149 160 174 158 154 159 140 143 150 150 149 153 155
226 251 247 237 248 246 276 302 312 309 241 229 273 271 268 252 221 215 271 239 156 129 115 113 142 162 183 170 167 174 171 165 146 199 169 167 156 151 157 160 155 156 157 166
235 264 337 344 322 310 315 305 301 317 317 212 306 298 336 360 258 306 309 193 143 157 137 157 161 159 166 166 147 149 183 181 159 171 157 141 140 141 150 160 168 171 171 173
273 358 28 356 326 3 312 341 343 325 346 310 127 298 351 326 351 330 303 110 148 151 140 134 156 160 155 142 139 132 186 171 147 153 169 180 163 166 172 170 174 172 166 161
264 321 8 333 325 328 255 311 304 289 299 329 340 71 317 12 353 14 285 133 187 160 156 177 145 174 141 135 126 111 139 162 175 142 174 176 184 169 156 148 150 135 141 145
250 284 105 262 289 279 276 301 300 251 250 27 288 117 356 1 58 352 11 4 303 156 136 136 152 157 155 155 141 185 153 111 131 154 170 192 186 160 148 148 154 143 142 141
333 20 324 336 334 332 358 11 347 12 17 215 358 74 55 2 26 82 7 360 68 64 135 147 177 161 169 147 152 166 178 147 112 142 178 193 154 149 168 169 172 156 150 153
61 349 358 337 9 297 308 58 344 20 45 321 21 45 19 4 39 23 42 359 13 93 148 167 214 180 168 140 169 169 170 144 130 121 156 208 102 159 131 156 146 167 173 168
34 321 336 353 11 33 312 22 164 302 180 46 5 352 344 4 16 47 64 19 9 18 27 170 182 204 158 192 183 181 172 163 167 152 170 175 186 162 174 188 180 165 149 176
317 347 331 331 26 342 56 292 34 344 37 77 341 65 5 6 7 15 31 49 357 19 32 36 45 54 224 237 186 186 176 189 175 171 186 188 202 206 194 189 202 181 173 181
28 72 312 33 8 27 359 18 26 119 32 20 49 70 8 353 357 22 13 21 7 18 19 17 23 16 15 355 209 189 204 161 168 183 187 186 208 210 189 210 214 197 186 184
329 98 70 3 2 25 68 36 49 87 334 34 83 61 323 340 360 35 29 22 24 23 17 18 28 21 29 26 41 166 184 190 183 183 192 203 218 215 210 208 214 210 202 184
333 23 38 343 349 356 25 0 42 76 29 19 62 43 324 337 11 17 28 23 23 24 19 17 33 19 19 22 27 40 38 49 141 149 164 145 156 206 234 224 213 195 162 149
90 67 138 165 210 233 336 350 357 80 68 337 97 309 355 0 15 12 6 5 20 29 33 27 23 25 25 26 28 32 28 44 35 34 119 117 111 111 106 126 114 122 114 128
79 102 32 330 328 333 245 284 335 88 198 121 266 39 339 341 8 9 355 12 30 30 34 33 27 15 16 18 22 24 25 25 47 48 56 98 117 108 113 102 76 85 117 130
9 123 87 341 66 40 310 280 245 223 205 168 287 194 326 325 19 31 21 12 22 28 26 24 26 14 19 20 14 18 18 20 52 75 68 33 16 118 127 125 105 108 101 110
68 103 48 313 15 41 4 218 209 286 158 157 207 189 289 347 60 32 19 20 19 13 9 11 7 8 18 11 9 12 6 21 41 54 56 91 103 94 96 122 124 132 145 133
114 89 109 237 23 27 240 154 213 205 223 205 144 135 267 46 107 67 21 20 9 2 3 357 348 353 27 15 5 352 11 30 44 41 24 47 85 111 125 125 153 162 159 153
77 104 65 106 183 277 266 213 185 177 271 196 177 208 270 318 205 108 10 6 340 332 329 332 332 340 4 7 353 6 18 16 19 3 301 232 156 150 146 163 177 203 124 140
355 95 112 32 122 202 223 172 127 98 286 185 161 198 216 325 187 249 333 328 334 335 328 340 340 11 29 356 345 13 18 25 18 0 334 260 199 184 194 196 183 156 165 174
28 358 152 227 232 283 200 155 116 145 233 165 175 188 174 159 226 249 300 321 318 333 357 356 356 4 5 9 9 15 5 11 326 320 321 325 248 212 200 186 162 149 156 163
180 150 216 118 51 291 149 109 173 199 147 168 183 191 190 186 242 314 296 318 324 327 357 28 11 351 359 11 22 15 12 326 326 324 322 311 292 216 180 169 170 163 158 170
238 191 197 183 217 236 202 209 174 156 160 179 163 174 162 154 220 313 314 320 299 319 332 1 7 17 13 5 29 16 335 335 326 324 319 309 295 224 154 168 171 156 162 164
258 184 222 5 270 212 197 188 173 168 151 149 134 138 125 196 295 295 299 306 312 304 333 321 357 350 352 0 27 16 343 333 338 334 327 324 243 181 157 154 163 177 183 186
203 140 205 261 274 310 253 199 170 149 137 138 140 137 159 175 270 269 278 286 290 275 304 315 306 314 323 340 1 5 355 348 348 342 351 345 336 186 179 182 193 209 206 198
188 194 175 224 220 193 238 194 156 152 166 163 158 149 166 173 226 256 262 255 263 261 285 293 289 290 306 317 0 355 2 6 0 358 354 345 345 352 325 178 236 307 309 249